DW3588 Weather Reports


Display with metric or nautical units.
time (UTC)temp
F
wind
direction
speed
MPH
gust
MPH
rain 1hr
in
rain 24hr
in
rain mn
in
humidity
%
barometer
mb
20260902160116 63 71 2.0 5.0 0.00 0.00 0.00 72 1016.8
20260902155616 63 70 2.0 5.0 0.00 0.00 0.00 72 1016.8
20260902155116 62 140 1.0 4.0 0.00 0.00 0.00 74 1016.8
20260902154616 62 140 1.0 4.0 0.00 0.00 0.00 75 1016.8
20260902154115 62 161 0.0 3.0 0.00 0.00 0.00 75 1016.9
20260902153615 62 162 0.0 3.0 0.00 0.00 0.00 75 1016.9
20260902153333 62 162 1.0 4.0 0.00 0.00 0.00 75 1016.9
20260902152614 62 161 1.0 4.0 0.00 0.00 0.00 76 1016.8
20260902152114 61 109 1.0 3.0 0.00 0.00 0.00 76 1016.8
20260902151609 61 106 2.0 6.0 0.00 0.00 0.00 76 1016.7
20260902151551 61 101 2.0 6.0 0.00 0.00 0.00 76 1016.7
20260902150606 61 113 2.0 6.0 0.00 0.00 0.00 76 1016.5
20260902150105 61 107 1.0 6.0 0.00 0.00 0.00 76 1016.5
20260902145601 61 138 2.0 5.0 0.00 0.00 0.00 77 1016.3
20260902145101 61 139 2.0 6.0 0.00 0.00 0.00 77 1016.3
20260902144601 60 121 1.0 6.0 0.00 0.00 0.00 77 1016.3
20260902144331 60 138 1.0 4.0 0.00 0.00 0.00 77 1016.2
20260902143559 60 134 1.0 4.0 0.00 0.00 0.00 78 1016.2
20260902143059 60 138 1.0 4.0 0.00 0.00 0.00 78 1016.3
20260902142559 60 152 1.0 3.0 0.00 0.00 0.00 79 1016.2
20260902142058 60 152 0.0 2.0 0.00 0.00 0.00 79 1016.3
20260902141556 60 152 0.0 1.0 0.00 0.00 0.00 79 1016.3
20260902141053 60 152 0.0 2.0 0.00 0.00 0.00 79 1016.2
20260902140551 60 152 1.0 3.0 0.00 0.00 0.00 79 1016.1
20260902140049 60 152 0.0 3.0 0.00 0.00 0.00 79 1016.0
20260902135549 59 150 0.0 1.0 0.00 0.00 0.00 78 1016.1
20260902135041 59 150 0.0 2.0 0.00 0.00 0.00 78 1015.9
20260902134811 59 150 0.0 2.0 0.00 0.00 0.00 78 1015.9
20260902134040 59 150 0.0 2.0 0.00 0.00 0.00 78 1015.7
20260902133538 59 150 0.0 2.0 0.00 0.00 0.00 77 1015.7
20260902133031 59 150 0.0 1.0 0.00 0.00 0.00 77 1015.6
20260902133019 59 150 0.0 1.0 0.00 0.00 0.00 77 1015.6
20260902132032 59 150 0.0 1.0 0.00 0.00 0.00 77 1015.5
20260902131532 59 150 0.0 0.0 0.00 0.00 0.00 77 1015.4
20260902131030 59 150 0.0 0.0 0.00 0.00 0.00 77 1015.4
20260902130530 59 150 0.0 1.0 0.00 0.00 0.00 76 1015.4
20260902130030 59 150 0.0 1.0 0.00 0.00 0.00 76 1015.3
20260902125527 59 150 0.0 1.0 0.00 0.00 0.00 76 1015.3
20260902125027 59 150 0.0 2.0 0.00 0.00 0.00 76 1015.2
20260902124523 59 150 0.0 2.0 0.00 0.00 0.00 76 1015.2
20260902124023 59 149 0.0 1.0 0.00 0.00 0.00 76 1015.3
20260902123517 60 149 0.0 1.0 0.00 0.00 0.00 76 1015.3
20260902123019 60 149 0.0 1.0 0.00 0.00 0.00 76 1015.4
20260902122517 60 149 0.0 2.0 0.00 0.00 0.00 76 1015.4
20260902122235 60 149 1.0 2.0 0.00 0.00 0.00 76 1015.3
20260902121516 60 149 1.0 2.0 0.00 0.00 0.00 76 1015.3
20260902121014 60 146 0.0 1.0 0.00 0.00 0.00 76 1015.4
20260902120512 60 146 0.0 1.0 0.00 0.00 0.00 75 1015.4
20260902120012 60 145 0.0 1.0 0.00 0.00 0.00 75 1015.4
20260902115509 60 145 0.0 4.0 0.00 0.00 0.00 75 1015.4
20260902115009 60 145 0.0 4.0 0.00 0.00 0.00 75 1015.3
20260902114509 60 211 0.0 2.0 0.00 0.00 0.00 75 1015.3
20260902114011 60 211 0.0 3.0 0.00 0.00 0.00 75 1015.4
20260902113505 60 211 0.0 3.0 0.00 0.00 0.00 75 1015.4
20260902113005 60 211 0.0 1.0 0.00 0.00 0.00 75 1015.5
20260902112501 60 211 0.0 3.0 0.00 0.00 0.00 76 1015.5
20260902112001 60 211 0.0 3.0 0.00 0.00 0.00 76 1015.6
20260902111500 60 211 1.0 3.0 0.00 0.00 0.00 75 1015.7
20260902111001 60 211 1.0 3.0 0.00 0.00 0.00 75 1015.8
20260902110501 60 211 2.0 3.0 0.00 0.00 0.00 76 1015.8
20260902105959 60 211 2.0 3.0 0.00 0.00 0.00 76 1016.0
20260902105718 60 211 1.0 3.0 0.00 0.00 0.00 75 1016.1
20260902104953 60 210 1.0 4.0 0.00 0.00 0.00 75 1016.1
20260902104451 60 209 2.0 4.0 0.00 0.00 0.00 75 1016.2
20260902103949 60 207 2.0 4.0 0.00 0.00 0.00 76 1016.2
20260902103449 60 188 1.0 4.0 0.00 0.00 0.00 76 1016.1
20260902102949 60 183 1.0 4.0 0.00 0.00 0.00 76 1016.2
20260902102449 60 183 1.0 5.0 0.00 0.00 0.00 75 1016.2
20260902101947 60 174 1.0 5.0 0.00 0.00 0.00 75 1016.2
20260902101439 60 175 0.0 1.0 0.00 0.00 0.00 74 1016.3
20260902101156 60 175 0.0 0.0 0.00 0.00 0.00 74 1016.2
20260902100437 60 175 0.0 0.0 0.00 0.00 0.00 74 1016.2
20260902100159 60 175 0.0 1.0 0.00 0.00 0.00 74 1016.1
20260902095435 60 175 0.0 1.0 0.00 0.00 0.00 74 1016.1
20260902094930 60 175 0.0 1.0 0.00 0.00 0.00 74 1016.1
20260902094428 60 175 0.0 1.0 0.00 0.00 0.00 74 1016.1
20260902094124 60 175 0.0 2.0 0.00 0.00 0.00 73 1016.1
20260902094006 60 175 0.0 1.0 0.00 0.00 0.00 74 1016.1
20260902092920 60 175 0.0 2.0 0.00 0.00 0.00 73 1016.1
20260902092419 60 175 0.0 1.0 0.00 0.00 0.00 72 1016.0
20260902091917 61 175 0.0 1.0 0.00 0.00 0.00 72 1015.9
20260902091418 61 175 0.0 0.0 0.00 0.00 0.00 72 1016.0
20260902090914 61 175 0.0 3.0 0.00 0.00 0.00 72 1016.0
20260902090413 61 175 1.0 3.0 0.00 0.00 0.00 71 1015.9
20260902085913 61 175 1.0 3.0 0.00 0.00 0.00 71 1015.9
20260902085411 61 177 0.0 3.0 0.00 0.00 0.00 71 1015.8
20260902084910 61 248 0.0 3.0 0.00 0.00 0.00 72 1015.8
20260902084403 61 248 1.0 3.0 0.00 0.00 0.00 72 1015.8
20260902084129 61 248 2.0 4.0 0.00 0.00 0.00 72 1015.7
20260902083401 61 248 3.0 6.0 0.00 0.00 0.00 72 1015.7
20260902082859 61 264 3.0 6.0 0.00 0.00 0.00 72 1015.7
20260902082359 61 267 3.0 6.0 0.00 0.00 0.00 72 1015.6
20260902081854 61 262 3.0 6.0 0.00 0.00 0.00 72 1015.6
20260902081353 61 270 2.0 6.0 0.00 0.00 0.00 72 1015.6
20260902081119 61 246 1.0 4.0 0.00 0.00 0.00 72 1015.7
20260902080349 61 242 0.0 2.0 0.00 0.00 0.00 71 1015.7
20260902075847 61 242 0.0 2.0 0.00 0.00 0.00 71 1015.7
20260902075345 61 242 0.0 2.0 0.00 0.00 0.00 71 1015.6
20260902074845 61 242 0.0 0.0 0.00 0.00 0.00 71 1015.6
20260902074343 61 242 0.0 0.0 0.00 0.00 0.00 71 1015.6
20260902073844 61 242 0.0 0.0 0.00 0.00 0.00 71 1015.5
20260902073343 61 242 0.0 0.0 0.00 0.00 0.00 71 1015.5
20260902072841 61 242 0.0 0.0 0.00 0.00 0.00 72 1015.5
20260902072600 61 242 0.0 0.0 0.00 0.00 0.00 72 1015.5
20260902071839 61 242 0.0 0.0 0.00 0.00 0.00 73 1015.5
20260902071338 61 242 0.0 0.0 0.00 0.00 0.00 72 1015.5
20260902070839 61 242 0.0 0.0 0.00 0.00 0.00 71 1015.6
20260902070553 61 242 0.0 0.0 0.00 0.00 0.00 71 1015.5
20260902065836 62 244 0.0 2.0 0.00 0.00 0.00 70 1015.5
20260902065336 62 244 1.0 2.0 0.00 0.00 0.00 70 1015.6
20260902065100 62 243 1.0 2.0 0.00 0.00 0.00 71 1015.5
20260902064334 62 243 1.0 3.0 0.00 0.00 0.00 70 1015.5
20260902063834 62 243 1.0 3.0 0.00 0.00 0.00 70 1015.5
20260902063332 63 243 2.0 5.0 0.00 0.00 0.00 70 1015.5
20260902062829 63 241 3.0 8.0 0.00 0.00 0.00 69 1015.5
20260902062327 63 221 4.0 8.0 0.00 0.00 0.00 69 1015.4
20260902061826 63 232 4.0 7.0 0.00 0.00 0.00 69 1015.4
20260902061813 63 211 3.0 7.0 0.00 0.00 0.00 69 1015.4
20260902060824 63 223 3.0 7.0 0.00 0.00 0.00 69 1015.5
20260902060324 63 229 3.0 6.0 0.00 0.00 0.00 69 1015.6
20260902055825 63 221 3.0 7.0 0.00 0.00 0.00 68 1015.7
20260902055326 63 223 2.0 7.0 0.00 0.00 0.00 68 1015.7
20260902054825 63 245 1.0 6.0 0.00 0.00 0.00 68 1015.7
20260902054323 63 250 2.0 6.0 0.00 0.00 0.00 68 1015.7
20260902053821 63 250 3.0 7.0 0.00 0.00 0.00 68 1015.8
20260902053319 63 261 3.0 7.0 0.00 0.00 0.00 68 1015.9
20260902053043 63 229 4.0 9.0 0.00 0.00 0.00 68 1015.8
20260902052316 64 244 5.0 10.0 0.00 0.00 0.00 68 1015.9
20260902051814 64 231 6.0 11.0 0.00 0.00 0.00 68 1015.9
20260902051308 64 232 5.0 11.0 0.00 0.00 0.00 68 1016.0
20260902050807 64 251 5.0 9.0 0.00 0.00 0.00 68 1016.1
20260902050304 64 219 5.0 9.0 0.00 0.00 0.00 68 1016.1
20260902045804 64 279 5.0 10.0 0.00 0.00 0.00 68 1016.1
20260902045306 64 272 5.0 10.0 0.00 0.00 0.00 68 1016.0
20260902044803 64 237 4.0 8.0 0.00 0.00 0.00 68 1016.0
20260902044300 64 267 4.0 8.0 0.00 0.00 0.00 68 1016.0
20260902043758 64 258 4.0 8.0 0.00 0.00 0.00 67 1016.0
20260902043256 64 233 4.0 8.0 0.00 0.00 0.00 67 1015.9
20260902042754 64 237 4.0 8.0 0.00 0.00 0.00 66 1015.9
20260902042253 64 242 4.0 9.0 0.00 0.00 0.00 66 1016.0
20260902042015 64 251 5.0 9.0 0.00 0.00 0.00 65 1015.9
20260902041251 65 242 4.0 8.0 0.00 0.00 0.00 65 1015.8
20260902040752 65 235 4.0 9.0 0.00 0.00 0.00 64 1015.7
20260902040501 65 245 5.0 11.0 0.00 0.00 0.00 63 1015.6
20260902040341 65 227 5.0 9.0 0.00 0.00 0.00 64 1015.7
20260902035246 65 237 5.0 11.0 0.00 0.00 0.00 63 1015.6
20260902035004 65 240 6.0 11.0 0.00 0.00 0.00 62 1015.5
20260902034243 65 227 6.0 11.0 0.00 0.00 0.00 61 1015.5
20260902033741 65 237 6.0 13.0 0.00 0.00 0.00 60 1015.4
20260902033240 65 230 7.0 15.0 0.00 0.00 0.00 60 1015.2
20260902032741 66 232 8.0 15.0 0.00 0.00 0.00 59 1015.1
20260902032239 66 234 8.0 14.0 0.00 0.00 0.00 59 1015.1
20260902031737 66 227 7.0 13.0 0.00 0.00 0.00 58 1015.0
20260902031235 66 229 7.0 13.0 0.00 0.00 0.00 58 1015.0
20260902030954 66 221 7.0 12.0 0.00 0.00 0.00 57 1015.0
20260902030233 66 232 8.0 14.0 0.00 0.00 0.00 57 1014.9
20260902025733 67 232 8.0 14.0 0.00 0.00 0.00 56 1014.9
20260902025458 67 242 6.0 12.0 0.00 0.00 0.00 56 1015.0
20260902024731 67 237 4.0 11.0 0.00 0.00 0.00 55 1014.8
20260902024232 67 229 4.0 11.0 0.00 0.00 0.00 55 1014.7
20260902023730 68 252 6.0 13.0 0.00 0.00 0.00 54 1014.7
20260902023229 68 240 6.0 13.0 0.00 0.00 0.00 53 1014.6
20260902022729 68 252 6.0 10.0 0.00 0.00 0.00 53 1014.5
20260902022229 68 267 6.0 13.0 0.00 0.00 0.00 54 1014.6
20260902021727 69 257 6.0 13.0 0.00 0.00 0.00 54 1014.6
20260902021226 69 239 7.0 16.0 0.00 0.00 0.00 53 1014.6
20260902020724 69 267 7.0 16.0 0.00 0.00 0.00 53 1014.5
20260902020703 69 273 7.0 14.0 0.00 0.00 0.00 53 1014.4
20260902015722 70 253 7.0 12.0 0.00 0.00 0.00 53 1014.3
20260902015222 70 243 6.0 12.0 0.00 0.00 0.00 53 1014.3
20260902014723 70 248 6.0 12.0 0.00 0.00 0.00 52 1014.3
20260902014219 71 262 6.0 15.0 0.00 0.00 0.00 51 1014.2
20260902013719 71 238 7.0 15.0 0.00 0.00 0.00 50 1014.2
20260902013430 71 270 7.0 13.0 0.00 0.00 0.00 50 1014.2
20260902012710 71 284 7.0 13.0 0.00 0.00 0.00 49 1014.2
20260902012430 72 248 7.0 13.0 0.00 0.00 0.00 48 1014.2
20260902011706 72 242 7.0 13.0 0.00 0.00 0.00 47 1014.1
20260902011658 72 272 7.0 14.0 0.00 0.00 0.00 47 1014.1
20260902010707 73 276 8.0 14.0 0.00 0.00 0.00 47 1014.1
20260902010205 73 281 7.0 16.0 0.00 0.00 0.00 46 1014.0
20260902005705 73 290 7.0 16.0 0.00 0.00 0.00 45 1013.9
20260902005200 74 281 6.0 11.0 0.00 0.00 0.00 45 1014.0
20260902004658 74 253 6.0 11.0 0.00 0.00 0.00 45 1014.1
20260902004156 74 264 7.0 12.0 0.00 0.00 0.00 44 1014.1
20260902003654 74 271 7.0 15.0 0.00 0.00 0.00 44 1014.1
20260902003417 74 273 7.0 15.0 0.00 0.00 0.00 44 1014.0
20260902002652 74 271 7.0 13.0 0.00 0.00 0.00 43 1013.9
20260902002153 75 238 8.0 13.0 0.00 0.00 0.00 44 1013.9
20260902001657 75 265 8.0 10.0 0.00 0.00 0.00 42 1014.0
20260902001246 0 0.0 0.0 0.00 0.00 0.00
20260902000744 0 0.0 0.0 0.00 0.00 0.00
20260902000729 0 0.0 0.0 0.00 0.00 0.00
20260901235744 0 0.0 0.0 0.00 0.00 0.00
20260901233715 77 292 6.0 10.0 0.00 0.00 0.00 41 1013.9
20260901233429 77 194 7.0 13.0 0.00 0.00 0.00 40 1013.9
20260901232652 77 238 6.0 11.0 0.00 0.00 0.00 41 1014.0
20260901232005 0 0.0 0.0 0.00 0.00 0.00
20260901231351 0 0.0 0.0 0.00 0.00 0.00
20260901230846 0 0.0 0.0 0.00 0.00 0.00
20260901230359 0 0.0 0.0 0.00 0.00 0.00
20260901214907 0 0.0 0.0 0.00 0.00 0.00
20260901210932 78 198 5.0 10.0 0.00 0.00 0.00 39 1014.5
20260901210432 77 205 5.0 11.0 0.00 0.00 0.00 40 1014.5
20260901205932 78 190 5.0 11.0 0.00 0.00 0.00 39 1014.5
20260901205430 78 182 4.0 11.0 0.00 0.00 0.00 39 1014.5
20260901205150 79 196 3.0 8.0 0.00 0.00 0.00 39 1014.6
20260901204642 77 287 2.0 8.0 0.00 0.00 0.00 40 1014.6
20260901203914 76 281 3.0 9.0 0.00 0.00 0.00 42 1014.7
20260901203413 78 312 2.0 9.0 0.00 0.00 0.00 41 1014.8
20260901202913 77 311 2.0 4.0 0.00 0.00 0.00 41 1014.8
20260901202419 77 232 3.0 0.0 0.00 0.00 0.00 42 1014.9